Theta_e
318 316 317 318 317 318 317 317 318 318 318 317 317 316 316 318 318 318 319 319 318 318 319 319 320 321 321 321 319 319 319 319 318 317 315 314 313 311 311 310 310 310 308 307
316 316 317 317 317 317 317 317 317 318 318 316 316 317 317 317 317 317 318 319 319 319 319 318 320 321 321 321 320 319 318 319 318 317 316 314 313 312 311 310 310 310 308 307
316 317 317 316 316 316 316 317 317 316 316 316 316 318 320 319 319 319 318 317 318 319 319 318 318 320 320 320 320 319 318 318 317 316 316 316 315 315 314 313 311 309 308 307
317 316 316 316 316 316 317 317 317 317 316 316 315 318 318 317 316 316 318 318 318 317 317 318 318 318 319 319 320 320 318 318 317 316 316 315 314 314 313 312 311 310 308 307
318 317 316 317 318 316 317 317 317 317 316 316 318 316 319 316 316 315 316 317 317 317 317 316 317 318 318 319 319 320 319 318 318 316 315 315 314 313 313 313 312 311 310 308
316 316 316 316 316 316 316 316 316 316 317 318 318 318 317 317 316 315 317 317 317 317 317 317 315 317 318 319 319 319 320 319 318 317 316 315 314 312 313 312 312 311 310 309
318 317 315 314 315 316 316 316 320 322 322 322 319 316 317 316 316 316 316 318 317 317 317 316 316 315 316 318 318 318 319 319 319 318 317 316 315 313 312 312 312 312 311 310
318 318 315 315 316 316 317 317 318 319 318 319 320 319 317 315 317 318 318 317 317 317 316 316 316 316 315 316 318 318 318 319 319 319 318 317 316 315 313 312 312 313 312 311
317 317 314 314 314 315 317 316 316 316 316 317 318 317 316 314 315 317 317 317 316 315 316 316 316 317 316 315 315 316 318 318 319 319 319 318 316 315 314 313 313 312 312 312
315 316 315 313 313 314 314 315 317 316 319 321 318 315 317 315 316 316 315 316 315 315 315 316 316 316 316 316 315 314 315 316 317 318 319 318 317 315 315 314 313 313 312 312
313 315 315 314 314 317 314 314 315 316 317 318 319 317 316 316 315 314 315 315 316 316 316 316 316 316 316 316 315 315 315 314 315 316 317 319 318 316 315 315 314 313 313 313
317 314 315 316 313 313 314 316 316 317 320 317 316 317 316 315 315 315 315 315 315 314 314 314 315 315 315 314 314 315 314 314 314 314 314 316 317 317 317 315 315 314 314 313
315 318 316 316 314 314 315 315 314 314 315 317 318 317 315 314 314 314 313 312 312 312 312 311 311 312 312 313 313 313 314 314 313 314 314 314 315 316 316 316 315 316 315 315
313 317 318 318 317 316 317 317 316 314 314 315 315 316 316 314 312 312 311 310 310 310 310 310 310 310 310 310 310 312 312 313 314 313 313 313 314 314 315 315 315 316 316 316
310 314 315 316 316 316 317 317 316 316 315 316 315 316 315 312 310 310 311 310 309 308 308 307 307 308 307 307 308 309 310 312 313 314 314 312 313 313 313 314 314 314 316 317
308 310 310 310 312 313 314 314 314 314 315 315 315 315 310 310 309 309 308 309 309 308 307 306 306 306 306 305 306 308 308 309 312 314 314 314 314 313 313 313 313 314 314 315
305 307 308 308 310 310 312 313 313 314 311 312 314 311 309 309 308 307 306 307 309 306 306 305 305 305 305 305 305 306 306 305 309 312 312 311 311 313 313 313 313 313 313 313
303 304 305 306 306 308 310 311 313 311 308 306 306 305 305 304 304 304 306 304 305 304 304 304 304 303 304 304 303 303 303 303 305 308 310 309 310 311 312 313 313 314 314 313
303 303 304 305 306 307 309 307 306 308 309 305 303 302 302 302 302 303 304 302 303 304 303 302 303 303 303 302 302 303 302 302 304 306 307 305 305 308 310 311 312 313 313 314
306 304 304 304 307 310 307 304 303 305 312 303 301 301 301 301 300 301 302 302 302 302 301 301 301 302 302 303 302 303 303 302 303 306 306 304 304 304 307 309 311 312 312 313
305 308 309 307 306 306 302 301 302 309 304 301 301 301 301 300 301 301 301 300 300 301 301 302 301 301 302 302 303 303 303 303 303 304 303 302 302 303 304 306 309 311 312 312
303 303 303 305 307 310 302 300 300 300 300 300 300 300 301 301 301 300 301 301 301 301 301 301 302 302 302 302 302 303 303 304 302 301 301 301 302 302 302 303 305 310 311 312
301 301 302 302 302 300 301 300 300 300 300 301 300 300 300 300 300 300 300 301 301 301 301 301 301 301 301 301 302 302 302 302 303 302 302 301 301 302 302 303 303 308 306 309
299 300 300 300 300 300 300 300 300 300 300 300 300 300 300 300 300 300 300 301 301 301 301 301 301 301 301 301 302 302 302 302 302 302 303 302 303 304 304 304 304 303 304 305
299 300 299 299 299 300 300 300 300 299 299 300 300 300 300 300 300 301 301 301 301 301 301 301 301 301 301 301 301 301 302 302 302 303 303 304 304 304 304 304 304 305 304 304
299 298 300 300 300 300 299 299 299 300 300 300 300 300 299 299 299 299 299 300 300 300 301 301 301 301 302 302 302 302 302 302 302 302 303 303 304 304 304 304 304 304 305 304
Wind_Speed
11 3 7 6 8 8 7 8 8 9 6 4 7 10 13 19 13 18 19 25 22 19 19 22 26 27 27 30 31 32 33 31 29 29 29 28 27 24 23 21 20 20 19 19
3 8 4 5 4 5 7 9 10 5 2 6 8 15 14 3 6 7 7 18 18 19 18 21 25 29 30 31 33 33 34 33 31 31 30 28 26 24 23 23 23 22 22 21
7 6 3 4 6 7 8 7 5 5 9 11 9 4 6 6 17 14 15 11 5 8 11 20 24 30 31 31 34 36 36 35 33 31 30 27 25 24 25 26 26 25 24 23
6 7 2 4 7 7 7 6 5 6 7 4 6 2 8 8 11 12 22 21 18 14 8 6 22 32 33 33 33 34 37 37 35 32 33 33 33 31 30 28 26 25 25 25
3 2 3 5 3 4 2 5 6 6 6 6 2 1 1 9 8 9 14 24 20 18 15 9 10 11 31 30 30 35 35 37 36 35 35 35 35 33 30 29 27 27 25 26
12 5 1 4 5 2 8 7 11 7 4 3 5 2 3 4 7 7 13 21 21 17 17 16 13 17 8 26 27 31 35 36 36 37 36 37 36 33 33 32 29 28 27 27
5 9 5 1 5 6 5 5 3 1 2 2 4 2 6 8 7 9 8 17 23 22 21 20 22 20 20 11 27 29 33 34 35 37 38 38 37 34 34 31 31 30 30 30
3 3 5 5 2 3 4 3 2 4 4 1 2 3 6 9 7 12 22 22 22 24 24 24 23 22 18 14 10 24 30 33 33 35 38 38 37 37 36 34 33 34 32 31
5 2 3 1 3 1 3 2 1 4 5 2 4 6 6 9 6 2 21 23 24 25 24 24 24 24 22 21 13 14 22 27 32 33 35 37 37 38 39 36 36 37 35 33
5 5 1 3 2 5 3 5 1 2 2 4 4 7 4 10 7 9 13 23 24 23 25 24 25 24 21 23 18 7 17 23 28 31 34 37 37 37 37 37 39 39 38 36
6 4 2 2 6 3 3 2 3 1 2 1 4 3 6 11 12 11 16 22 22 22 23 24 25 25 23 19 19 16 13 13 18 23 28 34 38 37 37 38 38 39 39 39
5 4 4 5 4 6 3 5 3 2 3 2 3 5 11 15 14 19 19 20 20 20 20 22 23 25 27 26 23 17 14 12 16 17 22 28 33 36 37 38 38 38 39 39
7 4 4 2 3 3 3 4 5 5 1 4 1 3 6 20 17 20 19 19 19 19 20 23 25 27 28 28 27 28 24 15 10 12 18 20 27 32 36 37 38 39 40 41
6 4 6 6 8 2 3 7 5 5 3 4 5 9 6 13 13 17 18 18 17 18 21 24 26 27 28 29 29 29 31 27 22 12 10 18 22 27 32 34 35 37 40 42
6 5 10 13 13 11 8 10 10 9 9 8 8 15 14 12 10 18 18 15 16 19 23 26 27 28 30 32 32 32 32 30 28 26 23 15 17 22 24 31 34 34 37 41
7 5 10 13 14 15 19 16 17 17 16 16 16 16 11 18 19 19 23 23 13 17 21 25 27 28 30 32 31 33 34 34 27 26 24 21 19 17 22 24 29 32 34 38
6 4 6 5 6 9 7 8 7 1 14 6 6 6 12 9 15 19 24 25 14 22 23 24 26 29 31 32 30 30 32 34 28 24 27 29 29 21 17 19 25 29 31 33
7 7 4 5 7 3 5 17 11 13 12 13 12 12 14 17 21 21 21 27 25 25 25 25 27 32 33 35 32 33 33 33 30 26 29 33 32 31 27 20 20 24 31 33
16 8 4 3 3 10 8 16 11 9 6 11 13 15 20 22 22 16 23 31 27 25 24 27 29 30 34 36 36 36 33 33 30 28 32 35 34 31 30 30 26 22 25 31
4 8 6 5 4 3 8 14 23 16 4 18 19 17 22 25 10 6 28 31 26 28 34 38 32 33 32 33 34 34 35 33 32 28 33 36 34 31 30 28 31 27 24 25
2 0 4 7 5 5 11 24 24 2 7 22 23 22 22 10 16 27 27 32 35 36 34 30 34 34 34 33 30 31 34 34 33 34 37 38 37 35 32 30 27 30 28 25
4 4 3 3 4 6 22 18 9 14 31 29 27 22 20 23 28 31 31 30 32 35 37 32 33 34 32 32 35 34 32 32 37 38 38 38 37 37 37 35 30 27 29 29
3 3 3 3 5 29 32 17 23 25 27 24 29 30 29 32 31 32 35 34 33 34 33 34 32 35 36 34 32 34 34 36 34 37 38 38 38 38 37 35 33 30 31 31
7 15 6 7 11 17 25 36 31 20 25 28 30 32 34 36 36 36 34 34 34 34 34 34 36 37 37 36 37 37 37 35 35 35 37 38 38 38 35 34 34 37 34 34
13 12 11 14 18 22 20 21 24 32 35 35 33 30 30 33 36 39 41 40 38 37 38 39 39 37 40 41 41 40 37 35 36 36 36 35 35 35 38 38 36 36 37 33
7 9 6 5 22 18 20 27 27 26 26 31 35 36 34 32 34 34 35 35 35 35 33 33 35 38 38 37 40 40 39 36 37 38 36 35 34 35 38 41 44 40 38 37
Wind_Direction
200 291 263 3 12 6 322 302 295 289 89 2 289 292 284 277 287 263 234 223 237 257 219 216 209 210 209 205 205 211 216 222 215 219 214 216 223 223 229 228 225 228 232 230
247 239 2 18 8 312 294 289 284 318 30 326 294 294 292 38 296 303 269 225 227 239 226 205 208 207 210 207 207 210 217 223 222 220 223 223 228 234 236 234 232 230 233 233
246 307 95 349 313 288 281 275 318 343 322 276 280 250 99 41 40 46 47 15 320 252 262 199 205 209 211 211 210 210 215 222 226 223 223 226 228 234 234 235 234 231 233 234
285 84 16 302 266 255 286 18 343 321 335 311 18 275 59 61 60 48 54 48 36 17 333 291 217 211 214 217 216 221 217 222 228 225 224 224 227 228 235 237 239 236 235 235
306 221 221 268 310 9 330 342 298 304 297 304 165 117 113 82 71 58 43 44 49 47 27 330 276 224 220 222 226 222 227 224 227 227 229 230 233 237 239 240 240 241 237 237
256 274 241 282 345 292 331 290 269 224 237 256 153 177 9 83 91 68 51 42 32 41 34 17 5 240 216 227 229 225 228 231 228 230 231 234 238 238 238 239 237 239 238 236
210 217 128 85 264 189 242 277 299 157 177 227 132 307 154 115 84 92 74 46 36 38 35 35 21 18 223 234 229 229 226 230 234 233 235 237 241 242 243 243 243 242 240 238
278 222 183 153 281 347 293 4 310 306 4 357 177 208 177 136 154 85 67 50 41 39 36 33 28 19 24 221 230 233 229 229 234 239 240 242 243 244 246 246 244 246 248 247
331 127 99 341 11 343 133 227 338 303 239 292 182 76 82 143 178 224 63 43 44 29 27 29 29 29 15 19 244 243 240 239 238 240 246 246 247 246 247 247 245 248 250 249
317 306 48 116 247 233 252 331 288 245 285 283 211 168 183 172 165 68 52 53 37 28 23 23 24 24 26 21 8 329 258 261 252 244 244 251 253 252 251 250 247 246 250 249
306 255 125 131 206 151 166 244 223 278 243 284 333 349 119 120 63 63 55 43 40 33 23 22 23 23 23 22 27 8 333 297 278 261 250 247 256 257 256 253 252 250 248 248
21 308 290 287 62 25 349 337 325 185 330 263 132 283 110 87 70 63 55 42 39 32 24 19 19 18 19 17 16 7 15 351 314 300 270 260 258 261 261 259 255 252 251 249
340 295 294 180 110 49 1 358 354 323 341 253 222 233 123 66 55 55 57 45 39 29 22 19 18 15 12 11 12 8 7 347 337 331 297 280 262 261 263 263 261 258 254 252
299 276 291 284 317 176 291 332 343 336 320 285 240 276 289 46 42 26 56 42 33 26 20 17 14 10 8 4 4 4 2 6 0 322 312 296 284 269 266 270 266 260 259 257
3 276 296 298 309 314 291 281 277 260 260 255 275 291 310 37 34 21 15 27 23 18 13 9 6 3 1 358 358 359 356 4 4 358 353 312 306 294 279 268 271 266 259 258
321 288 315 288 284 281 277 266 261 257 253 253 266 270 34 29 17 13 356 341 5 11 5 358 355 354 352 350 352 348 347 355 2 360 354 349 341 316 303 293 277 273 267 259
281 274 317 274 290 337 289 266 267 122 36 337 293 26 18 11 2 0 332 320 345 12 0 351 348 344 340 339 344 340 340 345 349 352 338 353 358 337 308 300 294 285 279 273
258 296 302 298 327 254 113 26 69 82 58 40 26 10 356 347 344 341 324 9 358 353 347 344 340 334 330 331 336 334 334 337 340 339 327 336 343 348 344 323 293 289 288 283
218 233 279 267 286 305 4 28 11 338 73 41 6 350 342 339 338 329 334 346 341 336 338 336 329 322 318 324 325 325 327 327 328 329 320 327 333 335 340 340 333 314 283 282
213 200 214 295 303 303 35 2 342 309 164 348 353 348 345 342 329 321 332 328 329 326 319 317 313 310 312 310 315 314 315 321 318 320 314 318 323 326 326 330 332 327 319 296
343 276 226 236 240 260 35 2 340 206 352 348 344 330 323 313 306 313 317 313 311 310 311 310 306 307 307 308 311 305 307 308 313 313 313 315 318 320 318 317 321 322 322 318
344 324 315 298 261 241 355 349 349 318 325 322 317 317 321 320 318 316 315 314 313 309 308 309 308 306 307 305 306 304 304 304 307 311 312 314 314 315 314 314 311 312 313 315
295 316 308 235 275 311 316 319 320 312 300 321 332 327 324 319 314 311 308 307 308 307 304 305 305 305 304 306 304 302 301 307 306 307 309 311 315 315 314 314 311 300 306 307
303 309 282 300 304 307 310 308 305 316 328 328 322 316 313 310 311 309 307 306 306 306 307 307 306 305 304 307 306 303 304 307 304 302 302 308 311 314 313 310 307 309 305 305
271 300 282 285 287 289 297 305 327 327 325 318 316 315 314 310 305 304 303 303 302 300 301 301 300 302 302 303 303 304 304 306 305 304 302 301 304 307 311 309 307 303 302 299
265 263 277 270 281 291 310 318 319 320 323 320 319 317 317 317 316 315 312 311 311 310 313 314 307 304 303 303 304 303 304 305 304 302 299 299 299 302 304 306 306 306 303 305